Location: Unspecified
(40.7945°N, 0.0000°E)
Time: 19:51:18
(UTC+00:00)

Explorer 7 - All Passes

Search period start: 21 January 2021 00:00
Search period end: 31 January 2021 00:00
Orbit: 484 x 678 km, 50.3° (Epoch: 21 January)

Date Brightness Start Highest point End Pass type
(mag) Time Alt. Az. Time Alt. Az. Time Alt. Az.
21 Jan - 04:15:55 10° S 04:18:41 19° SE 04:21:32 10° E visible
21 Jan - 05:54:57 10° WSW 05:58:47 65° NNW 06:02:50 10° NE visible
21 Jan - 07:36:32 10° WNW 07:39:51 24° N 07:43:22 10° NE daylight
21 Jan - 09:17:52 10° NW 09:21:22 25° N 09:25:03 10° ENE daylight
21 Jan - 10:58:11 10° NW 11:02:29 62° NNE 11:07:05 10° ESE daylight
21 Jan - 12:39:03 10° WNW 12:42:51 27° SW 12:46:50 10° SSE daylight
22 Jan - 04:19:39 10° SSW 04:23:03 32° SE 04:26:36 10° ENE visible
22 Jan - 05:59:43 10° W 06:03:26 44° NNW 06:07:21 10° NE visible
22 Jan - 07:41:30 10° WNW 07:44:42 22° N 07:48:04 10° NE daylight
22 Jan - 09:22:28 10° NW 09:26:10 29° NNE 09:30:03 10° ENE daylight
22 Jan - 11:02:43 10° WNW 11:07:05 90° NW 11:11:44 10° SE daylight
22 Jan - 12:44:17 10° W 12:47:14 17° SW 12:50:16 10° S daylight
23 Jan - 04:23:49 10° SW 04:27:30 55° SE 04:31:22 10° ENE visible
23 Jan - 06:04:36 10° W 06:08:09 33° NNW 06:11:52 10° NE visible
23 Jan - 07:46:22 10° NW 07:49:33 21° N 07:52:52 10° NE daylight
23 Jan - 09:27:01 10° NW 09:30:55 35° NNE 09:35:03 10° E daylight
23 Jan - 11:07:20 10° WNW 11:11:37 59° SW 11:16:10 10° SE daylight
24 Jan - 02:50:26 10° SSE 02:52:08 13° SE 02:53:51 10° ESE night (unlit)
24 Jan - 04:28:14 10° SW 04:32:02 90° NNW 04:36:00 10° ENE visible
24 Jan - 06:09:35 10° WNW 06:12:55 26° NNW 06:16:24 10° NE visible
24 Jan - 07:51:09 10° NW 07:54:23 22° N 07:57:47 10° ENE daylight
24 Jan - 09:31:31 10° NW 09:35:37 47° NNE 09:39:57 10° ESE daylight
24 Jan - 11:12:04 10° WNW 11:16:06 37° SW 11:20:21 10° SSE daylight
25 Jan - 02:53:32 10° S 02:56:28 22° SE 02:59:27 10° E night (unlit)
25 Jan - 04:32:53 10° WSW 04:36:37 58° NNW 04:40:32 10° NE visible
25 Jan - 06:14:34 10° WNW 06:17:44 23° N 06:21:01 10° NE visible
25 Jan - 07:55:48 10° NW 07:59:13 25° NNE 08:02:47 10° ENE daylight
25 Jan - 09:36:03 10° NW 09:40:15 68° NNE 09:44:43 10° ESE daylight
25 Jan - 11:17:02 10° W 11:20:31 23° SW 11:24:10 10° S daylight
26 Jan - 02:57:24 10° SSW 03:00:51 36° SE 03:04:25 10° ENE night (unlit)
26 Jan - 04:37:42 10° W 04:41:17 39° NNW 04:45:02 10° NE visible
26 Jan - 06:19:31 10° NW 06:22:34 21° N 06:25:44 10° NE visible
26 Jan - 08:00:23 10° NW 08:03:59 29° NNE 08:07:47 10° E daylight
26 Jan - 09:40:36 10° WNW 09:44:49 81° SW 09:49:19 10° SE daylight
26 Jan - 11:22:30 10° W 11:24:54 14° SW 11:27:20 10° SSW daylight
27 Jan - 03:01:38 10° SW 03:05:19 63° SE 03:09:09 10° ENE night (unlit)
27 Jan - 04:42:37 10° W 04:46:01 30° NNW 04:49:32 10° NE visible
27 Jan - 06:24:22 10° NW 06:27:24 21° N 06:30:34 10° NE visible
27 Jan - 08:04:54 10° NW 08:08:43 37° NNE 08:12:45 10° E daylight
27 Jan - 09:45:14 10° WNW 09:49:20 51° SW 09:53:41 10° SE daylight
28 Jan - 01:27:46 10° SSE 01:29:53 15° SE 01:32:01 10° E night (unlit)
28 Jan - 03:06:07 10° WSW 03:09:52 79° NNW 03:13:44 10° NE night (unlit)
28 Jan - 04:47:37 10° WNW 04:50:48 24° NNW 04:54:06 10° NE visible
28 Jan - 06:29:06 10° NW 06:32:14 22° N 06:35:30 10° ENE visible
28 Jan - 08:09:24 10° NW 08:13:23 51° NNE 08:17:37 10° ESE daylight
28 Jan - 09:50:02 10° WNW 09:53:48 32° SW 09:57:47 10° SSE daylight
29 Jan - 01:31:09 10° S 01:34:14 25° SE 01:37:22 10° E night (unlit)
29 Jan - 03:10:49 10° WSW 03:14:29 51° NNW 03:18:15 10° NE night (unlit)
29 Jan - 04:52:36 10° WNW 04:55:36 21° N 04:58:43 10° NE visible
29 Jan - 06:33:44 10° NW 06:37:03 25° NNE 06:40:30 10° ENE visible
29 Jan - 08:13:55 10° NW 08:18:00 75° NNE 08:22:21 10° ESE daylight
29 Jan - 09:55:06 10° W 09:58:12 20° SW 10:01:26 10° S daylight
30 Jan - 01:35:07 10° SSW 01:38:40 42° SE 01:42:15 10° ENE night (unlit)
30 Jan - 03:15:40 10° W 03:19:09 36° NNW 03:22:45 10° NE visible
30 Jan - 04:57:32 10° NW 05:00:26 20° N 05:03:27 10° NE visible
30 Jan - 06:38:17 10° NW 06:41:49 30° NNE 06:45:31 10° E visible
30 Jan - 08:18:29 10° WNW 08:22:34 72° SW 08:26:54 10° SE daylight
30 Jan - 10:01:00 10° WSW 10:02:33 12° SW 10:04:09 10° SSW daylight
